Theta_e
310 309 309 309 309 308 308 308 307 307 307 306 306 306 305 306 306 305 304 305 307 310 311 316 313 312 309 311 310 312 314 314 314 312 312 309 307 307 308 306 306 307 308 308 308 308 308
309 309 309 309 309 309 307 308 307 307 306 306 306 305 304 305 305 304 304 305 309 309 310 315 311 310 310 310 310 312 311 312 311 310 309 307 307 307 307 306 306 306 306 307 307 307 308
310 309 309 309 308 308 308 307 307 307 306 305 305 305 304 304 304 303 303 305 306 310 310 314 311 309 309 309 309 308 306 307 307 309 308 307 307 307 307 306 306 306 306 306 307 307 308
311 311 310 310 309 308 308 308 307 306 305 304 304 304 304 304 304 303 303 304 306 312 312 312 310 310 310 309 308 306 306 306 306 306 306 306 306 307 308 306 307 307 308 308 308 309 309
312 312 312 311 310 309 308 307 306 305 304 304 304 303 304 304 304 303 303 304 309 312 311 309 308 309 310 309 309 307 307 307 307 306 306 306 307 308 308 309 307 310 307 308 309 310 311
311 311 311 310 310 310 309 306 304 303 304 304 303 303 303 304 304 303 303 301 308 310 309 309 308 310 308 310 308 308 308 307 307 308 308 308 308 309 307 308 309 307 307 312 312 313 314
311 311 311 309 310 307 303 300 301 302 302 303 303 303 303 303 303 303 303 301 303 309 309 309 310 310 309 308 308 308 307 307 306 307 307 307 306 306 305 307 307 308 310 312 312 313 314
307 305 306 304 301 300 299 300 299 300 302 302 302 302 303 303 302 302 303 302 301 301 308 309 310 310 308 308 309 308 307 308 307 309 308 310 310 307 307 308 310 314 316 313 313 312 316
306 306 304 302 300 300 302 301 301 302 302 302 302 302 302 302 300 299 301 302 302 303 307 310 310 310 309 308 310 309 308 309 310 310 310 311 310 311 311 312 317 313 316 316 314 313 316
304 304 302 301 301 301 301 302 302 302 302 302 302 302 302 299 300 299 303 301 302 304 310 314 312 310 309 309 310 308 308 310 311 310 310 311 309 311 311 314 314 317 314 318 319 319 322
304 301 301 301 302 302 302 302 302 302 302 302 301 302 302 299 299 301 301 303 303 303 314 310 310 308 308 310 311 310 308 310 311 311 313 314 315 315 317 316 316 318 317 318 320 322 317
305 302 301 301 302 301 302 302 302 302 302 302 302 302 301 300 299 301 301 303 303 309 314 313 309 309 310 309 312 311 311 309 311 312 312 313 313 314 314 313 313 314 316 318 320 321 323
304 301 300 301 301 302 302 302 303 302 302 302 302 300 301 301 300 301 300 303 307 312 312 310 313 310 310 312 314 312 313 313 315 315 317 315 313 311 311 315 315 317 319 323 322 324 325
303 300 300 301 302 302 302 303 303 304 303 302 301 300 300 301 301 301 301 305 313 316 313 311 311 311 315 312 314 314 316 316 313 313 314 318 318 316 315 318 320 320 319 323 323 328 326
303 300 301 301 302 302 302 303 304 303 301 300 300 300 300 301 301 302 302 309 311 314 312 312 312 316 316 314 314 315 315 315 316 311 317 321 319 316 316 317 317 320 323 317 322 324 326
302 300 301 301 302 302 302 303 303 303 302 300 300 300 301 302 301 302 302 311 312 312 311 311 312 313 313 314 317 314 316 316 317 313 312 317 322 317 316 317 317 318 317 319 319 323 329
302 300 301 302 301 302 303 303 303 303 302 301 301 299 301 302 302 301 309 310 310 310 311 310 312 313 312 315 317 318 316 314 313 314 312 315 319 316 317 317 316 317 316 315 315 317 323
301 300 301 301 301 302 302 304 303 303 302 302 299 298 302 303 302 306 307 308 308 309 310 311 310 310 310 311 313 315 315 314 313 313 315 313 317 319 317 315 313 313 315 313 315 316 315
301 300 301 301 301 301 301 302 303 303 304 303 302 303 302 303 309 303 308 308 308 309 310 312 310 309 309 310 314 315 315 314 313 312 311 311 313 313 314 313 311 315 313 312 313 313 313
300 299 301 301 301 301 301 302 301 301 302 303 301 303 301 305 306 309 307 307 308 308 310 311 312 309 310 313 312 315 315 314 313 312 313 312 311 312 311 313 313 313 313 312 312 312 314
299 299 301 301 301 302 301 302 302 300 302 303 299 304 305 306 306 306 307 307 309 309 310 311 310 311 310 312 313 314 314 313 313 312 312 311 311 307 311 312 313 312 312 313 311 311 312
299 297 301 301 301 302 302 301 302 301 302 302 301 305 303 305 304 305 306 307 309 310 311 312 313 312 311 312 310 312 311 311 312 310 311 310 308 312 311 310 309 310 310 312 313 312 311
299 294 300 301 302 302 302 302 302 302 302 302 303 303 303 303 303 305 306 308 310 311 310 310 310 311 311 311 309 307 308 308 308 310 309 311 310 309 311 309 310 310 308 309 312 311 312
299 293 300 301 301 301 302 304 303 302 302 302 302 303 303 304 305 306 305 306 308 310 311 310 308 310 309 306 307 309 308 308 308 307 307 310 310 307 307 308 307 309 307 307 309 309 310
300 291 299 300 301 302 304 304 304 302 302 302 302 303 305 304 304 305 305 306 306 309 310 309 308 307 305 309 310 310 309 309 310 309 309 307 309 308 308 304 308 309 308 309 309 309 307
300 291 297 300 302 304 304 303 304 303 302 302 303 302 301 303 300 299 302 307 307 308 307 310 308 306 308 311 309 311 310 311 310 309 309 308 307 308 309 310 312 309 307 305 306 308 308
300 293 297 298 303 303 304 304 303 302 303 303 302 301 300 301 297 300 302 303 305 307 306 306 308 308 309 309 309 308 306 309 310 310 311 309 308 309 309 309 309 308 306 306 308 307 308
299 293 297 298 302 303 303 302 302 302 302 301 299 299 300 297 296 298 299 300 301 302 306 305 307 307 308 310 309 307 307 307 307 308 310 309 307 308 307 308 307 306 306 308 305 307 307
298 293 297 297 302 303 302 301 301 300 300 301 300 298 299 298 298 298 298 298 298 298 299 299 306 307 306 303 306 305 307 304 305 306 307 306 307 307 306 307 304 305 306 304 303 305 307
Wind_Speed
27 26 25 25 24 23 22 21 21 19 19 18 20 21 22 21 22 23 23 25 22 22 23 14 16 16 12 4 5 18 16 14 13 12 11 4 5 5 5 4 6 12 12 10 9 8 11
27 27 27 25 25 24 22 23 20 19 18 18 20 19 22 22 23 24 25 27 25 28 19 13 21 15 4 5 6 25 19 16 11 10 8 4 4 5 2 3 3 5 10 13 11 15 14
29 28 28 27 27 27 24 22 21 17 17 18 19 20 20 22 22 24 27 28 33 27 14 19 18 17 3 5 20 17 15 12 12 13 5 12 7 2 3 6 5 6 11 14 15 16 13
34 34 33 31 29 27 26 24 20 16 16 17 19 20 20 20 21 24 27 31 34 10 16 22 19 10 3 9 15 18 14 9 8 4 1 4 3 1 4 4 6 7 4 5 3 3 7
42 41 43 41 37 33 23 23 16 15 17 17 17 19 20 20 19 22 26 30 16 14 25 22 13 6 4 9 12 16 16 11 13 6 4 3 3 3 3 5 5 5 5 6 10 3 7
44 45 47 47 48 52 28 12 15 18 17 16 16 17 20 20 18 21 22 22 7 19 20 14 8 6 3 6 9 12 12 8 6 7 3 2 2 2 5 6 6 5 5 6 10 5 10
46 47 42 37 32 16 7 15 18 20 20 18 18 18 19 19 18 20 21 4 4 3 4 3 9 1 10 16 15 7 9 8 7 6 6 5 3 9 13 13 14 7 12 15 18 18 18
32 37 37 26 29 30 22 11 11 17 18 18 18 18 19 17 18 14 7 4 5 6 3 5 6 0 14 13 6 8 14 5 8 7 9 3 10 14 12 12 16 14 14 17 20 14 10
32 27 29 26 29 23 19 18 18 17 17 16 18 17 16 16 12 11 5 5 13 6 2 6 4 9 5 3 6 12 12 5 6 8 9 8 5 4 14 12 11 12 13 14 16 13 11
34 31 30 27 25 21 20 21 19 19 18 16 15 16 16 16 4 12 3 12 11 8 3 5 7 3 6 4 0 15 16 3 4 6 7 8 10 13 10 13 8 10 9 11 12 8 3
29 27 28 27 27 26 24 23 22 21 19 18 16 13 11 7 5 2 10 9 1 2 4 2 4 5 5 2 12 4 8 3 5 4 2 4 4 4 4 5 4 7 9 12 14 6 3
26 28 27 27 27 27 28 27 25 22 18 14 11 9 7 4 4 3 13 3 2 1 5 4 4 5 6 3 4 4 2 3 0 3 6 9 2 2 3 8 8 11 10 14 12 4 3
27 29 26 26 27 29 29 28 29 26 22 17 10 6 5 0 2 7 10 2 2 3 2 3 5 9 7 5 5 6 5 4 3 3 3 1 1 3 4 5 2 5 3 3 2 2 1
27 28 25 26 29 29 31 32 32 32 24 14 7 8 6 4 2 5 5 2 5 5 7 7 6 8 3 7 4 7 4 2 4 3 2 3 1 2 5 5 1 3 2 3 4 2 2
26 26 25 26 29 30 32 33 33 30 23 19 23 19 11 5 1 0 3 4 4 5 3 5 7 2 2 4 1 3 3 3 4 7 4 2 3 4 10 5 3 1 2 4 3 3 0
25 24 25 26 28 31 33 33 34 31 18 13 8 16 12 7 2 3 4 5 5 7 3 3 2 5 4 2 2 2 2 4 3 11 7 5 2 5 5 4 6 6 4 2 1 4 3
24 23 23 26 27 30 34 34 33 29 16 7 5 4 3 6 10 4 4 3 3 6 6 5 6 2 6 5 4 3 3 1 5 2 9 4 2 5 1 1 3 3 4 3 2 4 1
21 21 22 25 25 28 31 33 31 30 21 18 4 4 3 15 4 1 3 4 7 6 5 4 2 6 3 3 2 3 3 2 7 3 2 4 2 2 2 4 5 4 6 1 3 6 3
20 20 20 23 24 27 29 32 30 28 22 6 3 1 6 3 3 3 3 4 5 6 5 7 6 4 3 3 4 4 4 3 5 2 1 4 3 2 7 5 5 4 7 4 2 3 6
19 18 19 22 23 25 26 29 30 26 19 7 2 3 3 1 1 2 2 5 5 4 5 3 4 3 3 6 6 2 2 2 4 1 2 1 4 2 4 4 4 6 11 13 5 5 3
20 18 19 20 21 23 24 27 26 23 16 3 3 1 0 2 5 5 3 3 5 6 3 4 6 8 4 6 3 4 2 2 4 8 4 4 4 4 4 4 4 5 7 13 8 5 4
19 17 17 19 20 21 21 24 23 21 13 8 2 2 2 1 4 5 5 5 6 5 4 6 6 7 9 6 4 4 4 5 2 6 4 4 0 3 6 7 7 5 13 10 10 9 7
18 17 17 19 22 22 21 18 19 17 10 6 4 2 1 2 4 2 3 3 4 6 4 5 4 4 8 6 6 6 4 3 3 3 4 2 3 2 2 4 5 5 6 6 3 6 3
18 17 17 18 21 22 21 20 13 10 8 5 3 2 2 2 1 1 2 4 4 6 3 4 7 3 3 7 5 1 5 5 7 7 4 3 2 2 2 3 4 5 2 2 5 6 6
17 16 15 18 21 24 24 18 9 4 3 5 3 2 2 2 2 2 1 3 7 2 3 3 4 2 6 4 3 2 3 4 3 3 6 3 2 2 3 2 2 3 2 1 2 2 4
16 14 14 17 19 24 24 12 1 3 5 8 3 2 1 1 2 4 3 2 1 3 5 3 4 6 4 2 3 2 1 2 3 5 4 4 4 3 1 3 3 3 0 3 2 3 4
14 12 12 14 18 21 18 10 6 7 10 6 5 3 1 2 3 3 2 1 3 2 2 4 5 6 4 3 3 1 2 1 2 3 2 3 2 2 1 1 4 2 3 1 3 4 2
11 9 9 11 14 15 12 10 12 10 4 3 3 1 2 1 3 1 1 1 4 2 1 3 3 3 3 3 1 2 1 3 2 3 2 3 2 3 1 2 4 5 3 4 4 2 4
9 8 7 7 8 10 9 10 8 9 5 3 3 3 2 3 3 3 4 4 3 2 1 3 2 1 1 2 0 1 2 1 2 3 2 3 5 3 6 4 4 4 3 3 4 4 3
Wind_Direction
335 332 329 327 324 320 317 313 317 318 320 322 327 327 329 329 330 333 329 325 319 317 311 204 168 172 149 202 233 157 151 154 156 179 213 182 180 193 218 249 280 256 257 256 264 270 270
330 327 320 317 315 310 313 313 314 314 316 320 323 323 327 327 329 330 327 323 316 308 281 220 168 170 172 217 164 161 155 152 158 179 202 236 213 233 285 252 256 285 297 289 285 274 274
322 316 313 308 309 306 301 303 303 309 312 322 323 329 329 325 330 332 327 325 318 301 240 186 165 176 193 232 151 155 159 160 173 181 196 223 235 140 350 322 289 279 295 294 270 263 260
317 312 307 301 295 292 295 294 299 309 315 316 321 327 330 331 328 332 332 329 327 249 181 165 166 169 240 219 149 145 154 155 156 170 350 316 108 301 262 288 320 297 294 301 217 213 236
321 316 308 296 283 281 282 294 307 319 318 317 321 326 332 332 334 334 337 334 335 152 144 145 138 181 229 165 168 172 165 171 181 164 208 203 87 216 234 227 283 229 268 252 298 308 225
328 323 319 315 319 311 282 320 342 338 333 320 327 328 330 336 341 337 335 340 353 122 123 146 155 204 174 174 155 148 174 187 114 137 138 165 183 228 226 214 236 228 240 236 275 282 315
330 328 342 353 343 15 67 356 345 342 342 333 327 329 329 336 341 338 330 6 354 128 180 218 153 280 125 109 118 116 133 119 117 172 192 209 171 215 215 221 241 276 277 277 282 283 286
30 7 347 360 24 14 4 5 350 337 335 335 326 330 328 337 339 338 30 38 343 278 347 279 188 34 123 135 119 144 151 145 182 205 209 144 237 233 229 231 239 267 274 280 279 270 245
9 356 3 356 360 7 358 354 345 339 337 335 327 328 341 343 342 354 97 77 327 225 222 195 210 154 143 134 140 169 168 191 203 221 205 218 235 233 215 239 254 263 262 271 259 293 269
5 359 357 3 11 5 357 348 346 343 338 335 333 342 344 350 69 339 100 344 330 198 150 105 157 188 126 138 237 152 188 224 212 233 230 245 249 252 244 255 237 272 252 286 305 276 273
7 12 13 6 0 357 357 351 347 343 342 342 341 338 330 359 299 0 347 325 309 297 108 117 105 128 132 170 139 163 189 253 241 234 192 238 273 334 300 228 301 254 330 315 293 256 292
5 7 4 4 5 360 356 352 349 345 342 338 337 335 331 23 349 37 337 347 108 0 79 119 129 164 137 218 121 127 123 13 254 304 254 254 284 269 261 301 268 278 297 290 270 236 249
4 4 5 7 3 358 358 356 351 345 333 320 308 304 293 268 260 342 346 17 65 37 193 143 143 149 151 164 135 168 184 182 242 256 253 247 203 281 243 281 210 209 283 287 291 191 309
4 4 6 5 1 0 358 357 356 357 8 27 73 126 137 152 358 360 16 46 41 28 66 136 133 123 176 159 223 193 164 188 202 232 313 298 33 233 180 241 294 262 147 294 302 356 323
3 5 4 3 2 360 360 1 4 12 37 57 97 85 62 64 197 318 32 39 27 32 323 106 118 86 89 199 188 113 156 210 217 194 218 334 0 265 222 241 199 211 242 225 263 254 44
1 6 3 3 4 0 2 5 7 13 34 53 45 69 34 87 91 321 60 40 46 33 53 272 133 229 134 106 70 146 231 157 221 203 203 349 318 281 280 234 238 203 304 358 263 341 39
359 7 2 2 3 5 3 6 8 12 19 2 354 76 332 16 313 24 42 44 2 324 346 39 15 126 111 164 217 210 131 29 349 270 176 185 247 287 312 314 283 334 291 241 238 177 120
357 2 4 1 2 6 7 6 10 9 10 6 19 55 301 338 29 351 29 347 353 316 339 4 285 46 54 110 43 94 96 7 340 340 328 195 248 284 276 262 255 273 282 246 100 325 68
358 357 5 0 360 5 7 9 4 8 9 354 64 73 291 315 41 0 51 21 15 347 330 350 9 4 9 41 79 57 71 294 334 25 20 338 3 5 338 342 353 341 317 302 121 50 4
356 357 359 0 359 359 4 6 5 5 11 15 77 50 336 317 331 325 57 13 345 303 283 287 290 302 21 46 46 76 67 273 286 259 210 317 39 104 155 226 255 328 342 358 74 79 96
353 356 354 359 356 356 358 2 5 11 12 24 42 64 129 17 352 26 40 341 346 353 298 306 12 42 48 34 41 30 340 334 316 349 12 95 51 37 17 15 1 6 360 8 54 134 92
347 354 354 350 353 352 355 357 3 14 30 55 57 24 344 35 335 5 18 340 343 358 344 359 34 25 58 67 45 38 345 19 46 329 24 27 63 28 9 11 50 30 9 19 26 42 73
340 349 349 349 346 346 345 352 354 10 51 67 20 9 350 321 323 47 351 314 301 346 17 47 335 70 31 343 314 289 91 50 35 44 4 72 117 62 321 335 353 18 341 2 16 35 132
336 344 346 347 342 340 340 336 340 352 48 82 35 331 37 4 26 74 319 318 321 347 341 334 11 70 288 307 284 155 69 78 54 9 43 63 80 91 232 8 36 248 302 339 72 29 59
330 338 344 345 344 339 336 329 322 320 59 96 55 32 7 107 356 293 252 278 308 315 24 12 332 263 306 321 24 10 338 348 13 18 1 32 88 51 98 101 256 290 283 15 36 315 5
321 335 343 347 356 356 347 347 70 152 128 106 51 353 66 117 296 300 309 329 351 14 356 334 285 293 10 36 33 41 356 318 316 339 311 6 77 110 95 111 219 250 57 45 25 321 324
315 326 343 351 7 5 15 33 82 115 121 136 118 32 35 80 284 14 17 287 343 37 270 314 330 346 25 25 45 89 280 250 302 315 325 345 6 131 212 166 285 238 132 71 105 231 130
306 313 339 354 17 15 31 58 86 93 60 14 69 55 103 99 282 337 327 308 328 65 164 294 10 347 4 32 84 274 149 262 352 249 204 186 156 218 139 97 263 180 137 173 204 125 124
291 299 320 350 24 28 57 86 54 42 44 46 23 46 110 135 222 254 268 234 197 189 154 300 198 323 279 63 285 331 311 336 191 281 335 277 185 200 174 216 218 180 171 161 159 155 146